Location: Caltech
(34.1382°N, 118.1253°W)
Time: 20:57:54
(UTC-08:00)

AO-7 - Visible Passes

Search period start: 09 December 2016 00:00
Search period end: 19 December 2016 00:00
Orbit: 1440 x 1459 km, 101.6° (Epoch: 09 December)

Date Brightness Start Highest point End Pass type
(mag) Time Alt. Az. Time Alt. Az. Time Alt. Az.
09 Dec ? 03:29:19 10° NNE 03:37:43 72° ESE 03:46:04 10° S visible
09 Dec ? 05:23:32 10° N 05:29:40 23° WNW 05:34:01 15° W visible
10 Dec ? 02:30:31 10° NE 02:37:31 29° E 02:44:27 10° SSE visible
10 Dec ? 04:22:24 10° N 04:30:29 55° WNW 04:38:33 10° SW visible
11 Dec ? 03:22:24 10° NNE 03:30:45 66° ESE 03:39:02 10° S visible
11 Dec ? 05:16:21 10° N 05:22:48 26° WNW 05:26:00 20° W visible
12 Dec ? 02:23:49 10° NE 02:36:02 13° SE 02:37:05 10° SSE visible
12 Dec ? 04:15:23 10° N 04:23:34 61° WNW 04:31:44 10° SW visible
12 Dec ? 06:12:54 10° NW 06:14:37 11° NW 06:16:19 10° WNW visible
13 Dec ? 03:15:30 10° NNE 03:30:14 18° S 03:31:58 10° S visible
13 Dec ? 05:09:12 10° N 05:15:57 28° WNW 05:18:14 25° W visible
14 Dec ? 02:17:11 10° NE 02:29:29 10° SE 02:29:39 10° SE visible
14 Dec ? 04:08:22 10° N 04:16:39 67° WNW 04:24:54 10° SSW visible
14 Dec ? 06:04:53 10° NNW 06:07:50 12° NW 06:10:47 10° WNW visible
15 Dec ? 03:08:38 10° NNE 03:23:39 15° S 03:24:53 10° S visible
15 Dec ? 05:02:04 10° N 05:09:05 31° WNW 05:10:35 30° W visible
16 Dec ? 02:10:36 10° NE 02:22:52 - SE 02:14:26 19° ENE visible
16 Dec ? 04:01:22 10° NNE 04:17:49 11° SSW 04:18:02 10° SSW visible
16 Dec ? 05:57:15 10° NNW 06:01:02 14° NW 06:04:14 11° WNW visible
17 Dec ? 03:01:45 10° NNE 03:17:01 13° S 03:17:45 10° S visible
17 Dec ? 04:54:56 10° N 05:02:13 35° WNW 05:03:01 34° WNW visible
18 Dec ? 02:04:07 10° NE 02:16:13 - SE 02:06:55 16° ENE visible
18 Dec ? 03:54:22 10° NNE 04:11:09 10° SSW 04:01:49 72° N visible
18 Dec ? 05:49:48 10° NNW 05:54:14 16° NW 05:56:43 14° WNW visible
